Location: Aboncourt
(47.7710°N, 5.9826°E)
Time: 02:06:08
(UTC+00:00)

Resurs 01 Rocket - Pass Details

Date: 05 July 2020
Orbit: 634 x 644 km, 98.0° (Epoch: 03 August)

Event Time Altitude Azimuth Distance (km) Brightness Sun altitude
Exits shadow 20:45:40 - 190° (S) 2,959 4.7 -9.3°
Rises 20:45:45 0° 190° (S) 2,928 4.6 -9.3°
Reaches altitude 10° 20:48:08 10° 200° (SSW) 2,023 3.9 -9.6°
Maximum altitude 20:52:05 32° 264° (W) 1,100 3.2 -10.0°
Drops below altitude 10° 20:56:04 10° 328° (NNW) 2,033 5.8 -10.4°
Sets 20:58:28 0° 338° (NNW) 2,946 6.7 -10.7°
